�������l�o���
Date,Time,MP-1(��Sv/h),MP-2(��Sv/h),MP-3(��Sv/h),MP-4(��Sv/h),MP-5(��Sv/h),MP-6(��Sv/h),MP-7(��Sv/h),MP-8(��Sv/h),����,����(m/s),���J
2022/03/16,00:00,0.585,0.865,0.557,1.068,0.760,0.348,0.612,0.576,���k��,2.0,��
2022/03/16,00:10,0.585,0.864,0.555,1.069,0.761,0.349,0.612,0.577,��,1.2,��
2022/03/16,00:20,0.584,0.867,0.557,1.069,0.759,0.349,0.611,0.578,���k��,1.7,��
2022/03/16,00:30,0.584,0.865,0.556,1.067,0.760,0.348,0.611,0.576,�k,1.1,��
2022/03/16,00:40,0.584,0.862,0.557,1.068,0.760,0.349,0.613,0.576,�k�k��,1.5,��
2022/03/16,00:50,0.583,0.866,0.555,1.068,0.759,0.349,0.613,0.578,�k��,1.5,��
2022/03/16,01:00,0.585,0.867,0.556,1.066,0.760,0.348,0.612,0.577,��,2.5,��
2022/03/16,01:10,0.584,0.866,0.555,1.069,0.759,0.349,0.612,0.578,���k��,3.9,��
2022/03/16,01:20,0.586,0.864,0.556,1.067,0.761,0.349,0.611,0.577,���k��,3.3,��
2022/03/16,01:30,0.586,0.865,0.556,1.066,0.760,0.349,0.611,0.575,�k��,3.2,��
2022/03/16,01:40,0.584,0.866,0.556,1.068,0.760,0.348,0.611,0.577,�k��,1.9,��
2022/03/16,01:50,0.583,0.867,0.556,1.068,0.759,0.348,0.610,0.576,�k��,2.2,��
2022/03/16,02:00,0.583,0.866,0.555,1.069,0.760,0.347,0.610,0.576,�k��,2.6,��
2022/03/16,02:10,0.582,0.866,0.555,1.069,0.761,0.348,0.612,0.576,�k��,3.0,��
2022/03/16,02:20,0.584,0.866,0.556,1.069,0.760,0.349,0.611,0.576,�k��,3.7,��
2022/03/16,02:30,0.582,0.866,0.555,1.067,0.761,0.349,0.611,0.577,�k��,4.3,��
2022/03/16,02:40,0.583,0.864,0.554,1.066,0.760,0.348,0.612,0.576,�k��,4.5,��
2022/03/16,02:50,0.583,0.865,0.556,1.070,0.760,0.349,0.610,0.576,���k��,4.4,��
2022/03/16,03:00,0.583,0.866,0.557,1.068,0.760,0.347,0.609,0.576,���k��,4.6,��
2022/03/16,03:10,0.584,0.864,0.556,1.068,0.761,0.348,0.610,0.576,��,3.9,��
2022/03/16,03:20,0.582,0.866,0.556,1.071,0.760,0.349,0.612,0.575,���k��,3.8,��
2022/03/16,03:30,0.583,0.866,0.554,1.068,0.757,0.349,0.609,0.577,��,3.1,��
2022/03/16,03:40,0.584,0.866,0.556,1.067,0.758,0.349,0.611,0.575,���k��,3.7,��
2022/03/16,03:50,0.583,0.863,0.557,1.067,0.759,0.349,0.609,0.576,��,3.8,��
2022/03/16,04:00,0.582,0.866,0.554,1.069,0.762,0.347,0.610,0.574,�쐼,2.6,��
2022/03/16,04:10,0.584,0.865,0.556,1.071,0.759,0.350,0.610,0.576,��,4.6,��
2022/03/16,04:20,0.585,0.866,0.555,1.068,0.761,0.348,0.612,0.575,��,4.1,��
2022/03/16,04:30,0.585,0.865,0.556,1.069,0.758,0.348,0.611,0.576,��,5.1,��
2022/03/16,04:40,0.583,0.866,0.556,1.070,0.760,0.347,0.611,0.576,��,4.6,��
2022/03/16,04:50,0.582,0.867,0.557,1.069,0.760,0.349,0.610,0.576,��쓌,4.7,��
2022/03/16,05:00,0.584,0.867,0.555,1.069,0.761,0.350,0.611,0.576,��쓌,3.0,��
2022/03/16,05:10,0.583,0.865,0.557,1.066,0.760,0.347,0.610,0.574,��쓌,2.5,��
2022/03/16,05:20,0.584,0.865,0.555,1.067,0.761,0.348,0.611,0.576,��쓌,2.6,��
2022/03/16,05:30,0.583,0.863,0.556,1.069,0.759,0.347,0.609,0.575,�쓌,0.9,��
2022/03/16,05:40,0.583,0.866,0.555,1.068,0.760,0.349,0.610,0.578,��쓌,1.4,��
2022/03/16,05:50,0.584,0.866,0.555,1.067,0.758,0.346,0.610,0.576,��,2.8,��
2022/03/16,06:00,0.584,0.866,0.554,1.069,0.761,0.349,0.608,0.576,��,2.0,��
2022/03/16,06:10,0.582,0.864,0.555,1.066,0.761,0.347,0.611,0.576,��,2.0,��
2022/03/16,06:20,0.583,0.867,0.556,1.070,0.760,0.348,0.611,0.575,�쐼,0.8,��
2022/03/16,06:30,0.583,0.866,0.556,1.069,0.759,0.348,0.609,0.576,�k�k��,1.5,��
2022/03/16,06:40,0.583,0.864,0.555,1.067,0.758,0.347,0.609,0.576,�k�k��,1.7,��
2022/03/16,06:50,0.582,0.866,0.554,1.070,0.762,0.349,0.609,0.575,�k�k��,2.2,��
2022/03/16,07:00,0.585,0.868,0.554,1.070,0.762,0.348,0.610,0.576,�k��,2.9,��
2022/03/16,07:10,0.584,0.866,0.557,1.068,0.761,0.348,0.609,0.575,�k��,2.2,��
2022/03/16,07:20,0.585,0.866,0.556,1.070,0.761,0.348,0.612,0.576,���k��,1.7,��
2022/03/16,07:30,0.585,0.866,0.556,1.068,0.762,0.348,0.610,0.575,��,1.5,��
2022/03/16,07:40,0.584,0.866,0.555,1.071,0.762,0.349,0.612,0.576,�쓌,2.9,��
2022/03/16,07:50,0.584,0.866,0.556,1.068,0.761,0.350,0.612,0.576,���쓌,2.0,��
2022/03/16,08:00,0.585,0.867,0.556,1.071,0.758,0.348,0.611,0.576,�쓌,3.1,��
2022/03/16,08:10,0.585,0.866,0.557,1.069,0.759,0.349,0.612,0.575,�쓌,3.0,��
2022/03/16,08:20,0.586,0.866,0.557,1.070,0.761,0.350,0.610,0.576,��쓌,5.5,��
2022/03/16,08:30,0.585,0.865,0.557,1.069,0.759,0.349,0.613,0.575,��쓌,6.8,��
2022/03/16,08:40,0.585,0.866,0.556,1.070,0.761,0.348,0.610,0.576,��쓌,4.7,��
2022/03/16,08:50,0.586,0.864,0.554,1.073,0.763,0.348,0.610,0.576,��쓌,4.8,��
2022/03/16,09:00,0.585,0.862,0.555,1.069,0.761,0.347,0.608,0.577,��쓌,4.9,��
2022/03/16,09:10,0.583,0.863,0.555,1.070,0.761,0.348,0.609,0.576,��쓌,5.5,��
2022/03/16,09:20,0.584,0.862,0.555,1.070,0.762,0.348,0.608,0.575,��쓌,7.0,��
2022/03/16,09:30,0.585,0.862,0.556,1.068,0.761,0.348,0.609,0.575,��쓌,5.3,��
2022/03/16,09:40,0.583,0.864,0.556,1.068,0.762,0.347,0.611,0.577,��쓌,6.7,��
2022/03/16,09:50,0.584,0.861,0.557,1.069,0.761,0.347,0.609,0.574,��쓌,6.5,��
2022/03/16,10:00,0.585,0.863,0.554,1.070,0.762,0.349,0.609,0.575,��쓌,6.7,��
2022/03/16,10:10,0.586,0.864,0.558,1.069,0.762,0.349,0.610,0.574,��쓌,7.9,��
2022/03/16,10:20,0.584,0.863,0.557,1.067,0.762,0.348,0.609,0.574,��쓌,5.5,��
2022/03/16,10:30,0.587,0.863,0.556,1.071,0.761,0.347,0.610,0.574,��쓌,5.3,��
2022/03/16,10:40,0.586,0.864,0.558,1.070,0.761,0.349,0.610,0.573,�쓌,5.5,��
2022/03/16,10:50,0.586,0.865,0.558,1.071,0.763,0.348,0.608,0.575,�쓌,5.6,��
2022/03/16,11:00,0.585,0.865,0.559,1.069,0.764,0.348,0.609,0.573,��쓌,5.2,��
2022/03/16,11:10,0.587,0.862,0.557,1.072,0.762,0.347,0.609,0.573,��쓌,5.4,��
2022/03/16,11:20,0.585,0.864,0.559,1.070,0.760,0.349,0.608,0.574,��쓌,5.3,��
2022/03/16,11:30,0.586,0.864,0.556,1.069,0.761,0.347,0.609,0.575,��쓌,5.4,��
2022/03/16,11:40,0.584,0.867,0.558,1.072,0.763,0.347,0.611,0.574,��쓌,5.0,��
2022/03/16,11:50,0.587,0.865,0.557,1.070,0.763,0.347,0.610,0.574,��쓌,6.1,��
2022/03/16,12:00,0.586,0.867,0.558,1.071,0.761,0.348,0.610,0.574,�쓌,7.0,��
2022/03/16,12:10,0.585,0.868,0.557,1.072,0.761,0.346,0.609,0.575,��쓌,5.3,��
2022/03/16,12:20,0.586,0.869,0.557,1.073,0.762,0.347,0.609,0.574,��쓌,5.4,��
2022/03/16,12:30,0.585,0.869,0.557,1.071,0.761,0.346,0.610,0.575,��쓌,5.4,��
2022/03/16,12:40,0.584,0.869,0.557,1.070,0.762,0.350,0.610,0.573,��쓌,4.7,��
2022/03/16,12:50,0.585,0.868,0.558,1.071,0.764,0.349,0.610,0.574,��쓌,5.5,��
2022/03/16,13:00,0.585,0.869,0.557,1.071,0.762,0.348,0.611,0.574,��쓌,5.3,��
2022/03/16,13:10,0.585,0.868,0.557,1.070,0.764,0.349,0.611,0.576,��쓌,5.2,��
2022/03/16,13:20,0.585,0.867,0.558,1.072,0.763,0.349,0.611,0.573,��쓌,4.8,��
2022/03/16,13:30,0.585,0.866,0.557,1.070,0.763,0.348,0.610,0.573,��쓌,4.7,��
2022/03/16,13:40,0.586,0.868,0.557,1.072,0.766,0.348,0.611,0.576,��쓌,5.5,��
2022/03/16,13:50,0.588,0.865,0.557,1.071,0.764,0.350,0.612,0.574,��쓌,4.5,��
2022/03/16,14:00,0.585,0.867,0.558,1.073,0.765,0.349,0.612,0.576,�쓌,3.2,��
2022/03/16,14:10,0.588,0.866,0.559,1.071,0.763,0.349,0.610,0.574,�쓌,3.5,��
2022/03/16,14:20,0.585,0.869,0.558,1.072,0.764,0.348,0.611,0.577,��쓌,4.5,��
2022/03/16,14:30,0.587,0.867,0.559,1.069,0.765,0.348,0.611,0.574,��쓌,4.9,��
2022/03/16,14:40,0.585,0.867,0.557,1.071,0.766,0.348,0.612,0.576,��쓌,4.5,��
2022/03/16,14:50,0.586,0.867,0.558,1.072,0.763,0.348,0.610,0.575,��쓌,4.1,��
2022/03/16,15:00,0.587,0.871,0.559,1.071,0.766,0.349,0.610,0.575,�쓌,4.0,��
2022/03/16,15:10,0.587,0.872,0.559,1.073,0.764,0.350,0.613,0.575,��쓌,3.9,��
2022/03/16,15:20,0.587,0.870,0.560,1.074,0.765,0.348,0.611,0.575,��쓌,2.9,��
2022/03/16,15:30,0.586,0.871,0.561,1.073,0.766,0.349,0.611,0.574,�쓌,2.5,��
2022/03/16,15:40,0.589,0.872,0.561,1.071,0.766,0.349,0.610,0.575,�쓌,2.3,��
2022/03/16,15:50,0.589,0.874,0.559,1.072,0.766,0.350,0.611,0.574,���쓌,2.0,��
2022/03/16,16:00,0.588,0.873,0.561,1.073,0.769,0.349,0.610,0.576,��,1.7,��
2022/03/16,16:10,0.589,0.873,0.557,1.073,0.767,0.349,0.610,0.578,��,1.7,��
2022/03/16,16:20,0.588,0.874,0.559,1.072,0.766,0.349,0.610,0.577,��,1.2,��
2022/03/16,16:30,0.589,0.873,0.559,1.072,0.766,0.350,0.610,0.576,��,1.5,��
2022/03/16,16:40,0.590,0.875,0.560,1.073,0.768,0.349,0.612,0.577,���쓌,2.0,��
2022/03/16,16:50,0.590,0.873,0.559,1.073,0.768,0.349,0.613,0.579,�쓌,2.3,��
2022/03/16,17:00,0.589,0.873,0.560,1.072,0.767,0.349,0.612,0.578,��,1.7,��
2022/03/16,17:10,0.588,0.874,0.559,1.073,0.768,0.350,0.613,0.577,�쓌,2.3,��
2022/03/16,17:20,0.587,0.875,0.559,1.072,0.767,0.349,0.614,0.577,�쓌,1.7,��
2022/03/16,17:30,0.588,0.875,0.560,1.072,0.767,0.349,0.612,0.577,��,1.5,��
2022/03/16,17:40,0.587,0.873,0.559,1.072,0.767,0.349,0.614,0.575,��,1.7,��
2022/03/16,17:50,0.589,0.874,0.560,1.071,0.767,0.350,0.612,0.578,��,1.1,��
2022/03/16,18:00,0.588,0.872,0.557,1.074,0.765,0.350,0.612,0.577,�k�k��,1.1,��
2022/03/16,18:10,0.589,0.874,0.561,1.073,0.765,0.350,0.613,0.577,�k�k��,1.7,��
2022/03/16,18:20,0.587,0.873,0.558,1.076,0.766,0.350,0.614,0.576,�k�k��,1.5,��
2022/03/16,18:30,0.589,0.874,0.559,1.073,0.767,0.348,0.612,0.577,�k,1.7,��
2022/03/16,18:40,0.589,0.873,0.559,1.072,0.766,0.347,0.612,0.576,�k,1.7,��
2022/03/16,18:50,0.588,0.874,0.560,1.073,0.766,0.349,0.613,0.578,�k,3.0,��
2022/03/16,19:00,0.588,0.873,0.558,1.071,0.765,0.349,0.615,0.578,�k�k��,2.3,��
2022/03/16,19:10,0.588,0.875,0.559,1.072,0.766,0.348,0.612,0.577,�k,2.0,��
2022/03/16,19:20,0.588,0.873,0.560,1.074,0.768,0.349,0.611,0.578,�k,1.7,��
2022/03/16,19:30,0.588,0.873,0.559,1.072,0.767,0.348,0.614,0.575,�k�k��,1.9,��
2022/03/16,19:40,0.587,0.871,0.559,1.073,0.767,0.349,0.613,0.577,-,CALM,��
2022/03/16,19:50,0.588,0.872,0.559,1.073,0.766,0.349,0.612,0.577,-,CALM,��
2022/03/16,20:00,0.587,0.872,0.559,1.074,0.766,0.349,0.611,0.579,�k�k��,1.4,��
2022/03/16,20:10,0.585,0.875,0.559,1.073,0.766,0.350,0.612,0.578,�k,2.3,��
2022/03/16,20:20,0.587,0.872,0.557,1.071,0.766,0.349,0.611,0.576,�k,1.5,��
2022/03/16,20:30,0.587,0.873,0.558,1.072,0.766,0.348,0.613,0.577,�k,1.7,��
2022/03/16,20:40,0.587,0.873,0.557,1.075,0.766,0.350,0.612,0.578,�k�k��,3.0,��
2022/03/16,20:50,0.587,0.871,0.559,1.074,0.766,0.350,0.613,0.577,�k,4.0,��
2022/03/16,21:00,0.586,0.873,0.558,1.072,0.768,0.348,0.612,0.576,�k�k��,4.8,��
2022/03/16,21:10,0.588,0.876,0.559,1.072,0.767,0.348,0.612,0.575,�k�k��,4.0,��
2022/03/16,21:20,0.588,0.872,0.558,1.072,0.765,0.349,0.610,0.578,�k�k��,3.9,��
2022/03/16,21:30,0.589,0.872,0.558,1.071,0.765,0.350,0.611,0.578,�k,4.8,��
2022/03/16,21:40,0.588,0.873,0.559,1.073,0.766,0.349,0.613,0.577,�k,5.1,��
2022/03/16,21:50,0.586,0.871,0.557,1.073,0.766,0.348,0.612,0.577,�k,6.3,��
2022/03/16,22:00,0.589,0.872,0.559,1.072,0.768,0.349,0.612,0.576,�k,3.7,��
2022/03/16,22:10,0.588,0.873,0.558,1.074,0.765,0.349,0.612,0.578,�k,4.0,��
2022/03/16,22:20,0.587,0.870,0.558,1.074,0.767,0.349,0.612,0.578,�k,4.1,��
2022/03/16,22:30,0.587,0.873,0.559,1.075,0.764,0.349,0.613,0.577,�k,4.5,��
2022/03/16,22:40,0.588,0.872,0.558,1.072,0.765,0.350,0.614,0.576,�k,3.4,��
2022/03/16,22:50,0.588,0.872,0.559,1.074,0.766,0.349,0.613,0.577,�k,4.2,��
2022/03/16,23:00,0.585,0.875,0.559,1.072,0.765,0.350,0.611,0.577,�k,4.9,��
2022/03/16,23:10,0.588,0.873,0.557,1.072,0.766,0.349,0.612,0.577,�k,5.3,��
2022/03/16,23:20,0.587,0.874,0.558,1.071,0.767,0.350,0.612,0.577,�k,5.5,��
2022/03/16,23:30,0.587,0.872,0.557,1.071,0.765,0.350,0.613,0.577,�k,5.1,��
2022/03/16,23:40,0.588,0.874,0.559,1.069,0.766,0.349,0.612,0.576,�k,5.7,��
2022/03/16,23:50,0.587,0.871,0.558,1.074,0.766,0.350,0.611,0.578,�k,4.5,��
